Time,TemperatureF,DewpointF,PressureIn,WindDirection,WindDirectionDegrees,WindSpeedMPH,WindSpeedGustMPH,Humidity,HourlyPrecipIn,Conditions,Clouds,dailyrainin,SoftwareType,DateUTC
2013-05-24 00:05:00,73.3,68.0,29.95,West,263,1.0,-999.0,84,-99.99,,,0.00,weatherlink.com 1.10,2013-05-24 04:05:00,
2013-05-24 00:23:00,73.3,68.0,29.95,West,263,2.0,-999.0,84,-99.99,,,0.00,weatherlink.com 1.10,2013-05-24 04:23:00,
2013-05-24 00:35:00,73.5,68.0,29.95,WNW,287,4.0,-999.0,84,-99.99,,,0.00,weatherlink.com 1.10,2013-05-24 04:35:00,
2013-05-24 00:50:00,73.6,69.0,29.95,WNW,287,2.0,-999.0,84,-99.99,,,0.00,weatherlink.com 1.10,2013-05-24 04:50:00,
2013-05-24 01:05:00,73.4,69.0,29.95,WNW,287,1.0,-999.0,85,-99.99,,,0.00,weatherlink.com 1.10,2013-05-24 05:05:00,
2013-05-24 01:23:00,73.4,69.0,29.95,WNW,287,2.0,-999.0,86,-99.99,,,0.00,weatherlink.com 1.10,2013-05-24 05:23:00,
2013-05-24 01:35:00,73.5,70.0,29.94,WNW,287,2.0,-999.0,87,-99.99,,,0.00,weatherlink.com 1.10,2013-05-24 05:35:00,
2013-05-24 01:50:00,73.5,70.0,29.94,WNW,292,2.0,-999.0,87,-99.99,,,0.00,weatherlink.com 1.10,2013-05-24 05:50:00,
2013-05-24 02:05:00,73.4,69.0,29.94,WNW,290,2.0,-999.0,87,-99.99,,,0.00,weatherlink.com 1.10,2013-05-24 06:05:00,
2013-05-24 02:23:00,73.4,70.0,29.93,WNW,287,3.0,-999.0,88,-99.99,,,0.00,weatherlink.com 1.10,2013-05-24 06:23:00,
2013-05-24 02:35:00,73.2,70.0,29.93,WNW,289,4.0,-999.0,88,-99.99,,,0.00,weatherlink.com 1.10,2013-05-24 06:35:00,
2013-05-24 02:50:00,73.0,69.0,29.93,WNW,282,3.0,-999.0,88,-99.99,,,0.00,weatherlink.com 1.10,2013-05-24 06:50:00,
2013-05-24 03:07:00,73.1,70.0,29.92,WNW,283,3.0,-999.0,89,-99.99,,,0.00,weatherlink.com 1.10,2013-05-24 07:07:00,
2013-05-24 03:23:00,73.1,70.0,29.92,WNW,287,4.0,-999.0,89,-99.99,,,0.00,weatherlink.com 1.10,2013-05-24 07:23:00,
2013-05-24 03:43:00,73.0,70.0,29.92,WNW,292,4.0,-999.0,89,-99.99,,,0.00,weatherlink.com 1.10,2013-05-24 07:43:00,
2013-05-24 03:50:00,72.9,70.0,29.92,WNW,296,6.0,-999.0,90,-99.99,,,0.00,weatherlink.com 1.10,2013-05-24 07:50:00,
2013-05-24 04:05:00,72.7,70.0,29.92,WNW,291,4.0,-999.0,90,-99.99,,,0.00,weatherlink.com 1.10,2013-05-24 08:05:00,
2013-05-24 04:23:00,72.6,70.0,29.92,WNW,288,4.0,-999.0,91,-99.99,,,0.00,weatherlink.com 1.10,2013-05-24 08:23:00,
2013-05-24 04:36:00,72.4,70.0,29.91,WNW,303,5.0,-999.0,91,-99.99,,,0.00,weatherlink.com 1.10,2013-05-24 08:36:00,
2013-05-24 04:51:00,72.2,70.0,29.92,WNW,296,5.0,-999.0,92,-99.99,,,0.00,weatherlink.com 1.10,2013-05-24 08:51:00,
2013-05-24 05:06:00,72.2,70.0,29.92,NW,315,2.0,-999.0,92,-99.99,,,0.00,weatherlink.com 1.10,2013-05-24 09:06:00,
2013-05-24 05:24:00,72.3,70.0,29.92,West,278,2.0,-999.0,92,-99.99,,,0.00,weatherlink.com 1.10,2013-05-24 09:24:00,
2013-05-24 05:36:00,72.2,70.0,29.93,NW,304,0.0,-999.0,93,-99.99,,,0.00,weatherlink.com 1.10,2013-05-24 09:36:00,
2013-05-24 05:51:00,72.1,70.0,29.93,WNW,293,4.0,-999.0,93,-99.99,,,0.00,weatherlink.com 1.10,2013-05-24 09:51:00,
2013-05-24 06:06:00,72.0,70.0,29.94,WNW,293,1.0,-999.0,93,-99.99,,,0.00,weatherlink.com 1.10,2013-05-24 10:06:00,
2013-05-24 06:24:00,71.9,70.0,29.94,WNW,288,3.0,-999.0,93,-99.99,,,0.00,weatherlink.com 1.10,2013-05-24 10:24:00,
2013-05-24 06:36:00,71.6,70.0,29.95,WNW,298,2.0,-999.0,93,-99.99,,,0.00,weatherlink.com 1.10,2013-05-24 10:36:00,
2013-05-24 06:51:00,-999.0,-99.9,29.95,North,-999,-999.0,-999.0,-999,-99.99,,,0.00,weatherlink.com 1.10,2013-05-24 10:51:00,
2013-05-24 07:06:00,-999.0,-99.9,29.96,North,-999,-999.0,-999.0,-999,-99.99,,,0.00,weatherlink.com 1.10,2013-05-24 11:06:00,
2013-05-24 07:24:00,-999.0,-99.9,29.96,North,-999,-999.0,-999.0,-999,-99.99,,,0.00,weatherlink.com 1.10,2013-05-24 11:24:00,
2013-05-24 07:39:00,-999.0,-99.9,29.97,North,-999,-999.0,-999.0,-999,-99.99,,,0.00,weatherlink.com 1.10,2013-05-24 11:39:00,
2013-05-24 07:52:00,-999.0,-99.9,29.97,North,-999,-999.0,-999.0,-999,-99.99,,,0.00,weatherlink.com 1.10,2013-05-24 11:52:00,
2013-05-24 08:09:00,-999.0,-99.9,29.97,North,-999,-999.0,-999.0,-999,-99.99,,,0.00,weatherlink.com 1.10,2013-05-24 12:09:00,
2013-05-24 08:26:00,-999.0,-99.9,29.97,North,-999,-999.0,-999.0,-999,-99.99,,,0.00,weatherlink.com 1.10,2013-05-24 12:26:00,
2013-05-24 08:43:00,77.4,72.0,29.97,NNW,338,2.0,-999.0,84,-99.99,,,0.00,weatherlink.com 1.10,2013-05-24 12:43:00,
2013-05-24 08:59:00,79.4,72.0,29.98,NNW,337,0.0,-999.0,77,-99.99,,,0.00,weatherlink.com 1.10,2013-05-24 12:59:00,
2013-05-24 09:15:00,79.9,72.0,29.98,NNW,335,0.0,-999.0,76,-99.99,,,0.00,weatherlink.com 1.10,2013-05-24 13:15:00,
2013-05-24 09:32:00,80.7,72.0,29.98,NNW,340,2.0,-999.0,74,-99.99,,,0.00,weatherlink.com 1.10,2013-05-24 13:32:00,
2013-05-24 09:48:00,82.2,71.0,29.98,NNW,333,0.0,-999.0,69,-99.99,,,0.00,weatherlink.com 1.10,2013-05-24 13:48:00,
2013-05-24 10:05:00,84.1,70.0,29.98,NNW,333,1.0,-999.0,63,-99.99,,,0.00,weatherlink.com 1.10,2013-05-24 14:05:00,
2013-05-24 10:21:00,85.5,71.0,29.98,NNW,333,0.0,-999.0,63,-99.99,,,0.00,weatherlink.com 1.10,2013-05-24 14:21:00,
2013-05-24 10:38:00,85.7,71.0,29.98,NNW,344,4.0,-999.0,62,-99.99,,,0.00,weatherlink.com 1.10,2013-05-24 14:38:00,
2013-05-24 10:55:00,86.3,71.0,29.99,NNW,338,2.0,-999.0,60,-99.99,,,0.00,weatherlink.com 1.10,2013-05-24 14:55:00,
2013-05-24 11:11:00,87.6,67.0,29.99,North,360,0.0,-999.0,51,-99.99,,,0.00,weatherlink.com 1.10,2013-05-24 15:11:00,
2013-05-24 11:27:00,89.5,66.0,30.00,NNE,24,4.0,-999.0,46,-99.99,,,0.00,weatherlink.com 1.10,2013-05-24 15:27:00,
2013-05-24 11:44:00,89.7,67.0,29.99,North,360,1.0,-999.0,47,-99.99,,,0.00,weatherlink.com 1.10,2013-05-24 15:44:00,
2013-05-24 12:00:00,89.5,63.0,29.99,NNW,340,1.0,-999.0,41,-99.99,,,0.00,weatherlink.com 1.10,2013-05-24 16:00:00,
2013-05-24 12:17:00,90.7,62.0,29.99,North,9,0.0,-999.0,38,-99.99,,,0.00,weatherlink.com 1.10,2013-05-24 16:17:00,
2013-05-24 12:33:00,92.1,63.0,29.99,ENE,60,0.0,-999.0,38,-99.99,,,0.00,weatherlink.com 1.10,2013-05-24 16:33:00,
2013-05-24 12:49:00,91.6,60.0,29.98,NNE,15,1.0,-999.0,34,-99.99,,,0.00,weatherlink.com 1.10,2013-05-24 16:49:00,
2013-05-24 13:07:00,92.7,61.0,29.98,NW,304,0.0,-999.0,35,-99.99,,,0.00,weatherlink.com 1.10,2013-05-24 17:07:00,
2013-05-24 13:23:00,92.3,56.0,29.98,NW,325,1.0,-999.0,29,-99.99,,,0.00,weatherlink.com 1.10,2013-05-24 17:23:00,
2013-05-24 13:38:00,91.8,57.0,29.98,NNW,339,11.0,-999.0,31,-99.99,,,0.00,weatherlink.com 1.10,2013-05-24 17:38:00,
2013-05-24 13:56:00,93.2,61.0,29.97,WNW,290,4.0,-999.0,34,-99.99,,,0.00,weatherlink.com 1.10,2013-05-24 17:56:00,
2013-05-24 14:12:00,94.7,61.0,29.96,NW,304,3.0,-999.0,32,-99.99,,,0.00,weatherlink.com 1.10,2013-05-24 18:12:00,
2013-05-24 14:28:00,93.8,59.0,29.96,WNW,301,6.0,-999.0,31,-99.99,,,0.00,weatherlink.com 1.10,2013-05-24 18:28:00,
2013-05-24 14:45:00,94.3,57.0,29.96,NW,315,7.0,-999.0,28,-99.99,,,0.00,weatherlink.com 1.10,2013-05-24 18:45:00,
2013-05-24 15:01:00,93.2,57.0,29.95,NNW,332,1.0,-999.0,30,-99.99,,,0.00,weatherlink.com 1.10,2013-05-24 19:01:00,
2013-05-24 15:17:00,93.6,59.0,29.96,NW,306,3.0,-999.0,31,-99.99,,,0.00,weatherlink.com 1.10,2013-05-24 19:17:00,
2013-05-24 15:34:00,92.5,58.0,29.95,NNW,346,1.0,-999.0,31,-99.99,,,0.00,weatherlink.com 1.10,2013-05-24 19:34:00,
2013-05-24 15:50:00,92.3,58.0,29.95,North,5,1.0,-999.0,31,-99.99,,,0.00,weatherlink.com 1.10,2013-05-24 19:50:00,
2013-05-24 16:06:00,93.4,55.0,29.95,WNW,299,6.0,-999.0,27,-99.99,,,0.00,weatherlink.com 1.10,2013-05-24 20:06:00,
2013-05-24 16:23:00,93.2,56.0,29.94,North,355,3.0,-999.0,28,-99.99,,,0.00,weatherlink.com 1.10,2013-05-24 20:23:00,
2013-05-24 16:39:00,92.7,59.0,29.94,NW,315,5.0,-999.0,32,-99.99,,,0.00,weatherlink.com 1.10,2013-05-24 20:39:00,
2013-05-24 16:56:00,93.2,56.0,29.94,North,5,2.0,-999.0,28,-99.99,,,0.00,weatherlink.com 1.10,2013-05-24 20:56:00,
2013-05-24 17:11:00,94.0,55.0,29.94,NE,49,1.0,-999.0,27,-99.99,,,0.00,weatherlink.com 1.10,2013-05-24 21:11:00,
2013-05-24 17:27:00,93.8,56.0,29.94,NNW,333,1.0,-999.0,28,-99.99,,,0.00,weatherlink.com 1.10,2013-05-24 21:27:00,
2013-05-24 17:43:00,92.7,55.0,29.93,NNW,329,1.0,-999.0,28,-99.99,,,0.00,weatherlink.com 1.10,2013-05-24 21:43:00,
2013-05-24 17:57:00,92.5,56.0,29.93,NW,320,1.0,-999.0,29,-99.99,,,0.00,weatherlink.com 1.10,2013-05-24 21:57:00,
2013-05-24 18:16:00,92.9,61.0,29.94,NNW,342,1.0,-999.0,35,-99.99,,,0.00,weatherlink.com 1.10,2013-05-24 22:16:00,
2013-05-24 18:27:00,93.2,56.0,29.93,North,11,0.0,-999.0,28,-99.99,,,0.00,weatherlink.com 1.10,2013-05-24 22:27:00,
2013-05-24 18:42:00,93.2,56.0,29.93,NNE,28,1.0,-999.0,28,-99.99,,,0.00,weatherlink.com 1.10,2013-05-24 22:42:00,
2013-05-24 18:57:00,88.8,64.0,29.94,ESE,103,0.0,-999.0,44,-99.99,,,0.00,weatherlink.com 1.10,2013-05-24 22:57:00,
2013-05-24 19:16:00,86.3,64.0,29.95,East,88,8.0,-999.0,48,-99.99,,,0.00,weatherlink.com 1.10,2013-05-24 23:16:00,
2013-05-24 19:27:00,84.9,65.0,29.96,ESE,116,8.0,-999.0,51,-99.99,,,0.00,weatherlink.com 1.10,2013-05-24 23:27:00,
2013-05-24 19:42:00,83.4,64.0,29.96,ESE,123,7.0,-999.0,52,-99.99,,,0.00,weatherlink.com 1.10,2013-05-24 23:42:00,
2013-05-24 19:57:00,83.0,68.0,29.97,SSE,147,4.0,-999.0,60,-99.99,,,0.00,weatherlink.com 1.10,2013-05-24 23:57:00,
2013-05-24 20:16:00,82.7,67.0,29.98,SSE,150,4.0,-999.0,60,-99.99,,,0.00,weatherlink.com 1.10,2013-05-25 00:16:00,
2013-05-24 20:27:00,82.3,67.0,29.98,SE,137,9.0,-999.0,60,-99.99,,,0.00,weatherlink.com 1.10,2013-05-25 00:27:00,
2013-05-24 20:42:00,81.7,67.0,29.98,ESE,122,4.0,-999.0,61,-99.99,,,0.00,weatherlink.com 1.10,2013-05-25 00:42:00,
2013-05-24 20:57:00,81.4,67.0,29.99,SE,126,2.0,-999.0,62,-99.99,,,0.00,weatherlink.com 1.10,2013-05-25 00:57:00,
2013-05-24 21:16:00,80.7,67.0,29.99,ESE,121,4.0,-999.0,63,-99.99,,,0.00,weatherlink.com 1.10,2013-05-25 01:16:00,
2013-05-24 21:27:00,80.1,67.0,29.99,ESE,113,6.0,-999.0,64,-99.99,,,0.00,weatherlink.com 1.10,2013-05-25 01:27:00,
2013-05-24 21:42:00,79.5,66.0,30.00,East,91,5.0,-999.0,64,-99.99,,,0.00,weatherlink.com 1.10,2013-05-25 01:42:00,
2013-05-24 21:58:00,79.0,66.0,30.01,East,82,6.0,-999.0,65,-99.99,,,0.00,weatherlink.com 1.10,2013-05-25 01:58:00,
2013-05-24 22:17:00,78.6,65.0,30.01,SE,129,5.0,-999.0,64,-99.99,,,0.00,weatherlink.com 1.10,2013-05-25 02:17:00,
2013-05-24 22:28:00,78.3,65.0,30.02,ESE,117,9.0,-999.0,64,-99.99,,,0.00,weatherlink.com 1.10,2013-05-25 02:28:00,
2013-05-24 22:43:00,77.9,66.0,30.03,East,92,11.0,-999.0,66,-99.99,,,0.00,weatherlink.com 1.10,2013-05-25 02:43:00,
2013-05-24 22:58:00,77.2,66.0,30.03,ENE,78,5.0,-999.0,69,-99.99,,,0.00,weatherlink.com 1.10,2013-05-25 02:58:00,
2013-05-24 23:17:00,76.9,66.0,30.04,ESE,103,8.0,-999.0,70,-99.99,,,0.00,weatherlink.com 1.10,2013-05-25 03:17:00,
2013-05-24 23:28:00,76.8,66.0,30.04,East,82,6.0,-999.0,70,-99.99,,,0.00,weatherlink.com 1.10,2013-05-25 03:28:00,
2013-05-24 23:43:00,76.7,66.0,30.05,East,87,7.0,-999.0,70,-99.99,,,0.00,weatherlink.com 1.10,2013-05-25 03:43:00,
2013-05-24 23:58:00,76.4,66.0,30.05,East,98,8.0,-999.0,71,-99.99,,,0.00,weatherlink.com 1.10,2013-05-25 03:58:00,